Showing default

NOAA 6, 11416

Orbit data source: Space-Track

NOAA 6, 11416 is a payload satellite owned by NOAA (US) in SSO that was launched on Wed, 27 Jun 1979 UTC via an ATLAS F launch vehicle from the Air Force Western Test Range (AFWTR). Payload-class satellites include a variety of spacecraft equipped with specific instruments for various scientific and technological missions. These include communications satellites like Starlink; space stations such as the ISS; scientific satellites like the Hubble; Earth observation satellites from companies like Planet Labs, Umbra, and HawkEye 360; GPS; miniature CubeSats for education and research; and military/defense satellites.

Loading next visibility...
Identifier
11416, 1979-057A
Orbit
SSO
Country
Flag of USUS
Related business
Manufacturer
RCA/East Windsor
Mission
Non-operational Civil Weather
Bus & Motor
TIROS N, STAR 37S
Mass
1,418 kg wet, 684 kg dry
Launch date (UTC)
1979-06-27 (46 years ago)
Launch vehicle
ATLAS F
Launch site
Air Force Western Test Range (AFWTR)
Object type
Payload
Rocket body
Debris
Shape & HBR
Cyl + 1 Pan, 2.5 m
Radar Cross Section
7.472 m², Large (>1 m²)

Expand to show TLE details & history
Last TLE update: 1 day ago

TLE from 1 day ago
0 NOAA 6
1 11416U 79057A   25261.02071122  .00000286  00000-0  11547-3 0  9999
2 11416  98.5950 287.0826 0009605 352.2740   7.8296 14.35250689411918
Epoch: 2025-09-18T00:29Z
TLE epoch observation values (Epoch: 2025-09-18T00:29:49.449Z)
Latitude
Longitude
-77.56174°
Altitude
770.365 km
Speed
7.473 km/s
True Right ascension
19h 08m 19s
True Declination
0° 00' 00"
Sunlit
Object was in daylight at epoch
Visualization orbit readout
Latitude
Unknown
Longitude
Unknown
Altitude
Unknown
Speed
Unknown
Apparent Right ascension
Unknown
Apparent Declination
Unknown
Sunlit
N/A
Visualization observer readout
Local Sidereal Time
19:20:34
Azimuth
Unknown
Elevation
Unknown
Doppler factor
Unknown
Orbital elements
Apogee altitude
778.233 km
Perigee altitude
764.499 km
Semi-major axis
7,149.503 km
Eccentricity
0.00096
Inclination
98.595°
RAAN
287.0826°
Arg. of periapsis
352.274°
True anomaly
7.84461°
Mean anomaly
7.8296°
Eccentric anomaly
7.8371°
Mean motion
3.59029 °/min
Orbital period
100.27 mins
BSTAR
0.00011547
Loading maneuver chart data...
Computing Atmospheric mass density...
Loading historical data...
Loading historical data...
Loading historical data...
Loading historical data...
Loading historical data...
Loading historical data...
Loading historical data...

Documentation

Showing up to 5 results
|